www.pogodaiklimat.ru

Погода и климат >> Архив погоды >> Индонезия >> Колака


ПОГОДА в Колаке

  • Прогноз погоды в Колаке
  • Монитор погоды в Колаке

АРХИВ ПОГОДЫ в Колаке

Время (UTC), дата Ветер
(напр.,м/с)
 
Видим.   Явления Облачность Т
(С)
Тd
(С)
f
(%)
Тe
(С)
Тes
(С)
Комфортность P
(гПа)
Po
(гПа)
Тmin
(С)
Tmax
(С)
R
(мм)
R24
(мм)
S
(см)
00 11.09 штиль 0 10 км 1/1 600 м
[Cu med, cong Ci fib]
+26.6 +16.1 53 +30 +37 душно 1015.5 1014.0 +21.4
03 11.09 З 2 10 км 4/3 600 м
[Cu med, cong Ac trans Ci fib]
+33.4 +16.2 36 +36 +51 опасность
солнечного
удара
1014.0 1012.5
06 11.09 СВ 4 10 км 5/3 600 м
[Cu med, cong Ac trans Ci fib]
+31.0 +18.5 47 +36 +43 очень
душно
1011.5 1010.0
12 11.09 З 1 8000 м 5/3 570 м
[Cu med, cong Ac trans Ci fib]
+27.4 +21.7 71 +35 +35 очень
душно
1013.4 1011.9 +33.6
00 12.09 В 3 10 км 4/1 570 м
[Cu med, cong Ac trans Ci fib]
+26.4 +17.8 59 +31 +35 душно 1015.7 1014.2 +22.6
03 12.09 В 4 10 км 3/1 570 м
[Cu med, cong Ac trans Ci fib]
+32.0 +16.0 38 +35 +47 очень
душно
1014.0 1012.5
06 12.09 В 1 10 км 5/3 600 м
[Cu med, cong Ac trans Ci fib]
+33.4 +15.8 35 +36 +47 очень
душно
1011.0 1009.5
12 12.09 ЮВ 1 7000 м 9/3 600 м
[Cu med, cong Ac trans Ci fib]
+26.2 +20.8 72 +33 +33 очень
душно
1013.7 1012.2 +35.4
00 13.09 В 4 10 км 1/1 600 м
[Cu med, cong Ci fib]
+27.5 +17.8 55 +32 +36 очень
душно
1015.4 1013.9 +23.6
03 13.09 СВ 2 10 км 1/1 600 м
[Cu med, cong Ci fib]
+31.8 +15.4 37 +34 +53 опасность
солнечного
удара
1014.2 1012.7
06 13.09 В 2 10 км 1/1 600 м
[Cu med, cong Ci fib]
+34.1 +13.4 29 +35 +49 очень
жарко
1010.6 1009.1
12 13.09 Ю 2 7000 м 6/1 600 м
[Cu med, cong Ci fib]
+25.8 +21.6 78 +33 +33 очень
душно
1013.5 1012.0 +36.6
00 14.09 В 5 10 км 1/1 600 м
[Cu med, cong Ci fib]
+27.2 +16.1 51 +31 +34 душно 1015.5 1014.0 +22.9
03 14.09 В 5 10 км 1/1 600 м
[Cu med, cong Ci fib]
+32.2 +16.6 39 +35 +46 очень
душно
1014.0 1012.5
06 14.09 В 4 10 км 1/1 600 м
[Cu med, cong Ci fib]
+33.4 +15.8 35 +36 +46 очень
душно
1010.6 1009.1
12 14.09 штиль 0 10 км 6/3 600 м
[Cu med, cong Ac trans Ci fib]
+28.4 +24.0 77 +39 +39 очень
душно
1012.8 1011.3 +35.4
00 15.09 В 3 10 км 1/1 600 м
[Sc]
+27.8 +18.4 57 +33 +37 очень
душно
1014.1 1012.6 +23.8
03 15.09 В 2 10 км 1/1 600 м
[Sc]
+32.6 +17.1 40 +36 +55 опасность
солнечного
удара
1012.4 1010.9
06 15.09 В 4 10 км 1/1 600 м
[Cu med, cong]
+34.8 +16.9 35 +38 +49 очень
душно
1009.6 1008.1
12 15.09 штиль 0 8000 м 1/1 600 м
[Cu med, cong Ac trans Ci fib]
+26.6 +22.1 76 +34 +34 очень
душно
1011.9 1010.4 +35.8
00 16.09 ЮВ 4 10 км 1/1 600 м
[Cu med, cong Ci fib]
+28.4 +16.9 50 +32 +36 душно 1013.3 1011.8 +24.2
03 16.09 В 4 10 км 1/1 600 м
[Cu med, cong Ci fib]
+32.6 +17.9 42 +37 +49 очень
душно
1011.9 1010.4
06 16.09 СВ 2 10 км 1/1 600 м
[Cu med, cong Ci fib]
+35.2 +17.9 36 +39 +55 опасность
солнечного
удара
1008.8 1007.3
12 16.09 СВ 1 8000 м 4/3 600 м
[Cu med, cong Ac trans Ci fib]
+27.4 +23.3 78 +37 +37 очень
душно
1011.2 1009.7 +36.2
00 17.09 ЮВ 3 10 км 3/3 600 м
[Cu med, cong Ac trans Ci fib]
+29.2 +20.1 58 +36 +39 очень
душно
1013.7 1012.2 +25.2
03 17.09 ЮВ 1 10 км 4/3 600 м
[Cu med, cong Ac trans Ci fib]
+34.2 +19.3 42 +40 +56 опасность
солнечного
удара
1012.4 1010.9
06 17.09 СЗ 4 10 км 6/4 570 м
[Cu med, cong Ac trans Ci fib]
+30.2 +22.9 65 +40 +46 очень
душно
1010.7 1009.2
12 17.09 ЮВ 2 8000 м {дождь} 8/4 570 м
[Cu med, cong Ac As Ci fib]
+27.0 +22.5 76 +35 +35 очень
душно
1012.9 1011.4 +36.0 0.0

 

Местоположение метеостанции Колака (Индонезия): широта -4.30 долгота 121.53 высота над уровнем моря 3 м.

В архиве по умолчанию представлена погода в Колаке за последнюю неделю. Архивные данные за месяц целиком и за предыдущие месяцы, начиная с января 2011 года, Вы можете получить, выбрав интересующий диапазон дат из раскрывающегося списка и нажав кнопку "Ввод!".


*Определитесь, кто Вы:
робот инопланетянин человек

Внимание! Время в таблицах - всемирное. Для получения местного времени необходимо прибавить поправку, которая равна 8 ч.

Смотрите также архив погоды в соседних городах и на ближайших метеорологических станциях:

Погода в Кендари (Индонезия) (102 км)
Погода в Бау-Бау (Индонезия) (177 км)
Погода в Масамбе (Индонезия) (234 км)
Погода в Аэропорту Султана Хасануддин (Индонезия) (236 км)
Погода в Уджангпанданге (Индонезия) (236 км)
Погода в Посо (Индонезия) (337 км)
Погода в Маджене (Индонезия) (345 км)
Погода в Лувуке (Индонезия) (403 км)
Погода в Тауне (Индонезия) (444 км)
Погода в Палу (Индонезия) (450 км)

Пояснения к столбцам:

Ветер - указаны скорость ветра в м/с - средняя за 10 мин, порывы в срок и между сроками (в фигурных скобках) и направление, откуда дует ветер: С - северный, СВ - северо-восточный, В - восточный, ЮВ - юго-восточный, Ю - южный, ЮЗ - юго-западный, З - западный, СЗ - северо-западный.
Видимость - горизонтальная дальность видимости в метрах или километрах. При видимости от 1 до 10 км при отсутствии осадков обычно наблюдается дымка, при ухудшении видимости до 1 км и менее - туман. В сухую погоду видимость может ухудшаться дымом, пылью или мглою.
Явления - указаны атмосферные явления, наблюдавшиеся в срок или в последний час перед сроком; фигурными скобками обозначены явления, наблюдавшиеся между сроками (за 1-3 часа до срока); квадратными скобками обозначены град или гололедные отложения с указанием их диаметра в мм.
Облачность - указаны через наклонную черту общая и нижняя облачность в баллах и высота нижней границы облаков в метрах; квадратными скобками обозначены формы облаков: Ci - перистые, Cs - перисто-слоистые, Cc - перисто-кучевые, Ac - высококучевые, As - высокослоистые, Sc - слоисто-кучевые, Ns - слоисто-дождевые, Cu - кучевые, Cb - кучево-дождевые. Подробнее классификацию облаков см. в Атласе облаков (PDF).
T - Температура воздуха - температура, измеренная на высоте 2 м над землей.
Td - Температура точки росы - температура, при понижении до которой содержащийся в воздухе водяной пар достигнет насыщения.
f - Относительная влажность воздуха - влажноcть воздуха, измеренная на высоте 2 м над землей.
Te - Эффективная температура - температура, которую ощущает одетый по сезону человек в тени. Характеристика душности погоды. При расчете учитывается влияние влажности воздуха и скорости ветра на теплоощущения человека.
Tes - Эффективная температура на солнце - температура, которую ощущает человек, с поправкой на солнечный нагрев. Характеристика знойности погоды. Зависит от высоты солнца над горизонтом, облачности и скорости ветра. Ночью, в пасмурную погоду, а также при ветре 12 м/с и более поправка равна нулю.
P - Атмосферное давление - приведенное к уровню моря атмосферное давление.
Po - Атмосферное давление - измеренное на уровне метеостанции атмосферное давление.
Tmin - Минимальная температура - минимум температуры воздуха на высоте 2 м над землей.
Tmax - Максимальная температура - максимум температуры воздуха на высоте 2 м над землей.
R - Количество осадков - Количество выпавших осадков за период времени, мм. При наведении курсора мыши на число - период времени, за который выпало указанное количество осадков.
R24 - Количество осадков - Количество выпавших осадков за 24 часа, мм.
S - Снежный покров - Высота снежного покрова, см. При наведении курсора мыши на число - состояние снежного покрова и степень покрытия местности в баллах.